Monroe, NC

7:37 AM EST on December 10, 2016 (GMT -0500)
Monroe

Weather History for KEQY - March, 2013

Change the Weather History Date:

Saturday, March 30, 2013

  Actual Average (KCLT) Record (KCLT)
Temperature  
Mean Temperature 55 °F -  
Max Temperature 66 °F 67 °F 86 °F (1998)
Min Temperature 46 °F 47 °F 24 °F (1964)
Degree Days  
Heating Degree Days 10    
Growing Degree Days 5 (Base 50)    
Moisture  
Dew Point 44 °F    
Average Humidity 69    
Maximum Humidity 97    
Minimum Humidity 42    
Precipitation  
Precipitation 0.01 in - - ()
Sea Level Pressure  
Sea Level Pressure 30.18 in    
Wind  
Wind Speed 3 mph (West)    
Max Wind Speed 6 mph    
Max Gust Speed -    
Visibility 10 miles    
Events Rain    
Averages and records for this station are not official NWS values.
T = Trace of Precipitation, MM = Missing Value Source: NWS Daily Summary

Daily Weather History Graph

Daily Weather History Graph

Search for Another Location

Airport or City:

Trip Planner

Search our weather history database for the weather conditions in past years. The results will help you decide how hot, cold, wet, or windy it might be!

Date:

Astronomy

Mar. 30, 2013 Rise Set
Actual Time 7:11 AM EDT 7:42 PM EDT
Civil Twilight 6:46 AM EDT 8:07 PM EDT
Nautical Twilight 6:16 AM EDT 8:37 PM EDT
Astronomical Twilight 5:46 AM EDT 9:08 PM EDT
Moon 11:37 PM EDT (3/30) 9:14 AM EDT (3/30)
Length of Visible Light 13h 21m
Length of Day
12h 30m
Waning Gibbous, 86% of the Moon is Illuminated
Mar 30
Waning Gibbous
Apr 3
Last Quarter
Apr 10
New
Apr 18
First Quarter
Apr 25
Full

Hourly Weather History & Observations

Time (EDT) Temp. Dew Point Humidity Pressure Visibility Wind Dir Wind Speed Gust Speed Precip Events Conditions
12:53 AM 53.1 °F 36.0 °F 52% 30.24 in 10.0 mi West 4.6 mph - N/A   Overcast
1:53 AM 51.1 °F 39.9 °F 66% 30.23 in 10.0 mi WSW 4.6 mph - 0.00 in Rain Light Rain
2:53 AM 48.9 °F 43.0 °F 80% 30.23 in 8.0 mi Calm Calm - 0.00 in Rain Light Rain
3:53 AM 46.9 °F 45.0 °F 93% 30.24 in 8.0 mi WSW 5.8 mph - 0.00 in Rain Light Rain
4:53 AM 46.9 °F 45.0 °F 93% 30.22 in 10.0 mi Calm Calm - 0.01 in Rain Light Rain
5:53 AM 48.0 °F 45.0 °F 89% 30.23 in 10.0 mi NNW 4.6 mph - 0.00 in Rain Light Rain
6:53 AM 48.0 °F 46.0 °F 93% 30.24 in 10.0 mi SSW 3.5 mph - 0.00 in Rain Light Rain
7:53 AM 46.9 °F 46.0 °F 97% 30.25 in 6.0 mi Calm Calm - 0.00 in   Overcast
8:53 AM 48.0 °F 46.0 °F 93% 30.25 in 10.0 mi Calm Calm - N/A   Overcast
9:53 AM 50.0 °F 46.9 °F 89% 30.25 in 10.0 mi NE 4.6 mph - N/A   Overcast
10:53 AM 54.0 °F 46.9 °F 77% 30.24 in 10.0 mi ENE 5.8 mph - N/A   Clear
11:53 AM 57.9 °F 45.0 °F 62% 30.22 in 10.0 mi North 3.5 mph - N/A   Partly Cloudy
12:53 PM 61.0 °F 42.1 °F 50% 30.20 in 10.0 mi Variable 4.6 mph - N/A   Clear
1:53 PM 62.1 °F 43.0 °F 50% 30.17 in 10.0 mi SSW 4.6 mph - N/A   Scattered Clouds
2:53 PM 64.0 °F 42.1 °F 45% 30.15 in 10.0 mi Variable 3.5 mph - N/A   Partly Cloudy
3:53 PM 64.0 °F 42.1 °F 45% 30.13 in 10.0 mi Variable 3.5 mph - N/A   Scattered Clouds
4:53 PM 64.0 °F 42.1 °F 45% 30.12 in 10.0 mi West 4.6 mph - N/A   Partly Cloudy
5:53 PM 64.9 °F 41.0 °F 42% 30.11 in 10.0 mi SSE 3.5 mph - N/A   Scattered Clouds
6:53 PM 64.0 °F 42.1 °F 45% 30.11 in 10.0 mi Calm Calm - N/A   Partly Cloudy
7:53 PM 59.0 °F 45.0 °F 60% 30.12 in 10.0 mi Calm Calm - N/A   Clear
8:53 PM 54.0 °F 45.0 °F 72% 30.12 in 10.0 mi Calm Calm - N/A   Clear
9:53 PM 55.0 °F 45.0 °F 69% 30.12 in 10.0 mi Calm Calm - N/A   Clear
10:53 PM 54.0 °F 45.0 °F 72% 30.12 in 10.0 mi Calm Calm - N/A   Clear
11:53 PM 54.0 °F 46.0 °F 75% 30.11 in 10.0 mi Variable 3.5 mph - N/A   Clear